CW1662 Weather Reports


Display with metric or nautical units.
time (UTC)temp
F
wind
direction
speed
MPH
gust
MPH
rain 1hr
in
rain 24hr
in
rain mn
in
humidity
%
barometer
mb
20260904114335 72 84 0.0 0.0 0.00 0.79 0.00 95 1013.8
20260904113859 72 84 0.0 0.0 0.00 0.79 0.00 95 1013.8
20260904113343 72 84 0.0 0.0 0.00 0.79 0.00 95 1013.6
20260904112832 72 84 0.0 0.0 0.00 0.79 0.00 95 1013.6
20260904112335 72 84 0.0 0.0 0.00 0.79 0.00 95 1013.5
20260904111859 72 84 0.0 0.0 0.00 0.79 0.00 95 1013.4
20260904111326 72 84 0.0 0.0 0.00 0.79 0.00 95 1013.5
20260904110830 72 84 0.0 0.0 0.00 0.79 0.00 95 1013.4
20260904110335 71 84 0.0 0.0 0.00 0.79 0.00 95 1013.2
20260904105839 71 84 0.0 0.0 0.00 0.79 0.00 95 1013.4
20260904105402 71 84 0.0 0.0 0.00 0.79 0.00 95 1013.6
20260904104826 72 84 0.0 0.0 0.00 0.79 0.00 95 1013.4
20260904104330 72 84 0.0 0.0 0.00 0.79 0.00 95 1013.4
20260904103855 72 84 0.0 0.0 0.00 0.79 0.00 95 1013.3
20260904103339 72 84 0.0 0.0 0.00 0.79 0.00 95 1013.3
20260904102903 72 84 0.0 0.0 0.00 0.79 0.00 95 1013.0
20260904102326 72 84 0.0 0.0 0.00 0.79 0.00 95 1013.1
20260904101850 72 84 0.0 0.0 0.00 0.79 0.00 95 1013.1
20260904101337 72 84 0.0 0.0 0.00 0.79 0.00 95 1013.0
20260904100824 72 84 0.0 0.0 0.00 0.79 0.00 95 1013.0
20260904100329 72 84 0.0 0.0 0.00 0.79 0.00 95 1013.2
20260904095854 72 84 0.0 0.0 0.00 0.79 0.00 95 1013.2
20260904095335 72 84 0.0 0.0 0.00 0.79 0.00 95 1013.1
20260904094843 72 84 0.0 0.0 0.00 0.79 0.00 95 1013.2
20260904094347 72 84 0.0 0.0 0.00 0.79 0.00 95 1013.0
20260904093830 72 84 0.0 0.0 0.00 0.79 0.00 95 1013.0
20260904093337 72 84 0.0 0.0 0.00 0.79 0.00 95 1013.2
20260904092842 72 84 0.0 0.0 0.00 0.79 0.00 95 1013.2
20260904092326 72 84 0.0 3.0 0.00 0.79 0.00 95 1013.2
20260904091830 72 84 0.0 3.0 0.00 0.79 0.00 95 1013.1
20260904091354 73 86 0.0 2.0 0.00 0.79 0.00 95 1013.1
20260904090841 72 86 0.0 2.0 0.00 0.79 0.00 95 1013.1
20260904090329 73 54 0.0 2.0 0.00 0.79 0.00 95 1012.9
20260904085833 72 54 1.0 2.0 0.00 0.79 0.00 95 1013.0
20260904085336 72 54 0.0 2.0 0.00 0.79 0.00 95 1012.9
20260904084822 72 54 0.0 2.0 0.00 0.79 0.00 95 1012.9
20260904084330 72 54 1.0 2.0 0.00 0.79 0.00 95 1012.9
20260904083835 72 54 0.0 1.0 0.00 0.79 0.00 95 1013.0
20260904083359 72 54 0.0 0.0 0.00 0.79 0.00 95 1013.0
20260904082843 72 54 0.0 1.0 0.00 0.79 0.00 95 1013.0
20260904082345 72 54 1.0 2.0 0.00 0.79 0.00 95 1013.0
20260904081832 72 54 1.0 5.0 0.00 0.79 0.00 95 1013.1
20260904081336 72 54 3.0 5.0 0.00 0.79 0.00 95 1013.1
20260904080825 72 125 0.0 1.0 0.00 0.79 0.00 95 1012.5
20260904080328 72 125 0.0 1.0 0.00 0.79 0.00 95 1012.4
20260904075836 72 125 0.0 1.0 0.00 0.79 0.00 95 1012.4
20260904075340 72 125 0.0 1.0 0.00 0.79 0.00 95 1012.3
20260904074844 72 125 0.0 1.0 0.00 0.79 0.00 95 1012.3
20260904074349 72 125 0.0 1.0 0.00 0.79 0.00 95 1012.4
20260904073833 72 125 0.0 1.0 0.00 0.79 0.00 95 1012.4
20260904073337 72 125 0.0 3.0 0.00 0.79 0.00 95 1012.3
20260904072842 72 125 0.0 3.0 0.00 0.79 0.00 94 1012.4
20260904072325 72 161 0.0 3.0 0.00 0.79 0.00 94 1012.4
20260904071831 72 161 1.0 4.0 0.00 0.79 0.00 94 1012.4
20260904071343 72 182 1.0 4.0 0.00 0.79 0.00 94 1012.4
20260904070828 72 186 2.0 4.0 0.00 0.79 0.00 94 1012.3
20260904070332 72 198 2.0 3.0 0.00 0.79 0.00 95 1012.3
20260904065837 72 198 1.0 2.0 0.00 0.79 0.00 94 1012.4
20260904065339 72 198 1.0 3.0 0.00 0.79 0.00 94 1012.2
20260904064826 72 198 1.0 3.0 0.00 0.79 0.00 94 1012.2
20260904064334 72 158 1.0 2.0 0.00 0.79 0.00 94 1012.2
20260904063838 72 158 0.0 2.0 0.00 0.79 0.00 94 1012.2
20260904063403 72 158 0.0 1.0 0.00 0.79 0.00 94 1012.2
20260904062827 72 158 0.0 1.0 0.00 0.79 0.00 94 1012.1
20260904062330 72 158 0.0 3.0 0.00 0.79 0.00 94 1012.1
20260904061838 72 158 1.0 3.0 0.00 0.79 0.00 94 1012.0
20260904061343 72 200 0.0 2.0 0.00 0.79 0.00 94 1011.9
20260904060848 71 200 0.0 1.0 0.00 0.79 0.00 94 1012.0
20260904060331 72 200 0.0 1.0 0.00 0.79 0.00 94 1012.1
20260904055836 71 200 0.0 1.0 0.00 0.79 0.00 94 1012.1
20260904055400 72 200 0.0 1.0 0.00 0.79 0.00 94 1012.1
20260904054843 72 200 0.0 2.0 0.00 0.79 0.00 94 1012.2
20260904054328 72 200 0.0 6.0 0.00 0.79 0.00 94 1012.2
20260904053834 72 200 2.0 6.0 0.00 0.79 0.00 94 1012.2
20260904053337 72 196 3.0 5.0 0.00 0.79 0.00 94 1012.4
20260904052841 72 202 1.0 3.0 0.00 0.79 0.00 94 1012.6
20260904052325 72 202 0.0 3.0 0.00 0.79 0.00 94 1012.7
20260904051849 72 202 0.0 4.0 0.00 0.79 0.00 94 1013.0
20260904051337 72 219 1.0 8.0 0.00 0.79 0.00 94 1013.0
20260904050842 72 196 2.0 8.0 0.00 0.79 0.00 94 1013.3
20260904050346 72 193 4.0 10.0 0.00 0.79 0.00 94 1013.4
20260904045830 72 190 3.0 11.0 0.00 0.79 0.00 94 1013.4
20260904045333 72 195 5.0 11.0 0.00 0.79 0.00 94 1013.3
20260904044857 72 167 5.0 9.0 0.00 0.79 0.00 94 1013.3
20260904044343 72 209 2.0 9.0 0.01 0.79 0.00 94 1013.5
20260904043828 72 202 4.0 6.0 0.01 0.79 0.00 94 1013.5
20260904043332 73 192 2.0 3.0 0.02 0.79 0.00 94 1013.5
20260904042837 73 192 1.0 4.0 0.03 0.79 0.00 94 1013.4
20260904042344 73 192 0.0 4.0 0.03 0.79 0.00 94 1013.2
20260904041828 73 191 2.0 4.0 0.04 0.79 0.00 93 1013.0
20260904041337 73 150 1.0 3.0 0.05 0.79 0.00 94 1013.1
20260904040841 73 150 1.0 3.0 0.05 0.79 0.00 94 1013.4
20260904040326 73 44 0.0 1.0 0.07 0.79 0.00 94 1013.6
20260904035830 73 44 0.0 1.0 0.08 0.79 0.00 94 1013.7
20260904035333 73 44 0.0 3.0 0.09 0.79 0.79 94 1013.8
20260904034836 73 44 0.0 5.0 0.09 0.79 0.79 93 1013.9
20260904034323 73 113 1.0 5.0 0.09 0.78 0.78 93 1013.4
20260904033831 73 62 1.0 4.0 0.10 0.78 0.78 93 1013.5
20260904033336 74 106 0.0 2.0 0.09 0.77 0.77 93 1013.5
20260904032840 74 115 1.0 2.0 0.11 0.76 0.76 93 1014.2
20260904032328 74 32 0.0 1.0 0.11 0.76 0.76 93 1014.6
20260904031831 73 32 0.0 1.0 0.10 0.75 0.75 93 1014.9
20260904031337 74 32 0.0 1.0 0.09 0.74 0.74 93 1015.2
20260904030825 74 32 0.0 1.0 0.09 0.74 0.74 92 1015.4
20260904030350 74 32 0.0 2.0 0.07 0.72 0.72 92 1015.4
20260904025833 74 32 0.0 2.0 0.06 0.71 0.71 92 1015.4
20260904025337 74 32 0.0 2.0 0.05 0.70 0.70 92 1015.4
20260904024842 74 32 0.0 3.0 0.05 0.70 0.70 92 1015.3
20260904024346 74 32 1.0 4.0 0.04 0.69 0.69 92 1015.2
20260904023850 74 355 3.0 4.0 0.03 0.68 0.68 92 1015.3
20260904023333 74 315 0.0 1.0 0.04 0.68 0.68 92 1015.1
20260904022838 74 315 0.0 1.0 0.09 0.65 0.65 92 1014.6
20260904022341 74 315 0.0 2.0 0.31 0.65 0.65 92 1014.2
20260904021830 74 315 1.0 2.0 0.39 0.65 0.65 92 1014.2
20260904021335 74 315 0.0 0.0 0.39 0.65 0.65 91 1013.9
20260904020839 74 315 0.0 1.0 0.39 0.65 0.65 91 1013.9
20260904020327 74 315 0.0 7.0 0.39 0.65 0.65 90 1013.9
20260904015831 74 315 2.0 7.0 0.39 0.65 0.65 90 1013.9
20260904015334 74 317 3.0 7.0 0.39 0.65 0.65 90 1014.0
20260904014840 74 20 3.0 10.0 0.39 0.65 0.65 91 1013.9
20260904014347 74 346 5.0 11.0 0.39 0.65 0.65 90 1013.9
20260904013834 74 20 7.0 18.0 0.39 0.65 0.65 90 1013.7
20260904013339 74 9 10.0 26.0 0.39 0.65 0.65 89 1013.7
20260904012844 75 333 15.0 27.0 0.32 0.58 0.58 87 1014.2
20260904012331 79 309 15.0 27.0 0.09 0.35 0.35 81 1014.7
20260904011858 84 314 14.0 18.0 0.00 0.26 0.26 80 1014.0
20260904011324 84 198 0.0 0.0 0.00 0.26 0.26 83 1012.6
20260904010831 84 198 0.0 0.0 0.00 0.26 0.26 82 1012.6
20260904010338 84 198 0.0 0.0 0.00 0.26 0.26 82 1012.3
20260904005843 84 198 0.0 0.0 0.00 0.26 0.26 82 1012.2
20260904005325 84 198 0.0 1.0 0.00 0.26 0.26 82 1012.3
20260904004833 84 198 0.0 1.0 0.00 0.26 0.26 82 1012.1
20260904004338 84 198 0.0 0.0 0.00 0.26 0.26 82 1012.3
20260904003902 84 198 0.0 0.0 0.00 0.26 0.26 82 1012.5
20260904003326 84 198 0.0 0.0 0.00 0.26 0.26 82 1012.4
20260904002830 85 198 0.0 0.0 0.00 0.26 0.26 82 1012.4
20260904002337 85 198 0.0 0.0 0.00 0.26 0.26 81 1012.5
20260904001825 85 198 0.0 1.0 0.00 0.26 0.26 81 1012.3
20260904001329 85 198 0.0 1.0 0.00 0.26 0.26 81 1012.3
20260904000852 85 198 0.0 1.0 0.00 0.26 0.26 81 1012.6
20260904000340 85 198 0.0 1.0 0.00 0.26 0.26 81 1012.8
20260903235844 85 198 0.0 0.0 0.00 0.26 0.26 81 1013.1
20260903235347 85 198 0.0 0.0 0.00 0.26 0.26 81 1013.0
20260903234831 85 198 0.0 0.0 0.00 0.26 0.26 81 1013.2
20260903234335 85 198 0.0 0.0 0.00 0.26 0.26 80 1013.2
20260903233840 86 198 0.0 0.0 0.00 0.26 0.26 79 1013.2
20260903233325 86 198 0.0 0.0 0.00 0.26 0.26 79 1013.2
20260903232828 86 198 0.0 0.0 0.00 0.26 0.26 78 1012.9
20260903232338 87 198 0.0 0.0 0.00 0.26 0.26 77 1012.9
20260903231825 87 198 0.0 0.0 0.00 0.26 0.26 76 1012.5
20260903231330 87 198 0.0 0.0 0.00 0.26 0.26 75 1012.2
20260903230854 87 198 0.0 0.0 0.00 0.26 0.26 74 1012.0
20260903230338 88 198 0.0 0.0 0.00 0.26 0.26 74 1011.9
20260903225822 88 198 0.0 0.0 0.00 0.26 0.26 73 1012.0
20260903225329 88 198 0.0 0.0 0.00 0.26 0.26 73 1012.2
20260903224834 88 198 0.0 0.0 0.00 0.26 0.26 73 1012.1
20260903224338 88 198 0.0 0.0 0.00 0.26 0.26 73 1012.3
20260903223843 89 198 0.0 0.0 0.00 0.26 0.26 73 1012.2
20260903223327 89 198 0.0 0.0 0.00 0.26 0.26 72 1012.1
20260903222852 90 198 0.0 0.0 0.00 0.26 0.26 72 1012.1
20260903222338 90 198 0.0 2.0 0.00 0.26 0.26 70 1012.1
20260903221822 90 198 0.0 3.0 0.00 0.26 0.26 69 1012.0
20260903221328 90 198 1.0 3.0 0.00 0.26 0.26 69 1011.9
20260903220835 91 198 0.0 2.0 0.00 0.26 0.26 69 1011.9
20260903220322 91 198 0.0 2.0 0.00 0.26 0.26 68 1012.0
20260903215850 91 198 0.0 4.0 0.00 0.26 0.26 69 1011.7
20260903215332 91 198 2.0 4.0 0.00 0.26 0.26 66 1011.6
20260903214836 91 196 1.0 3.0 0.00 0.26 0.26 67 1011.7
20260903214344 91 196 1.0 4.0 0.00 0.26 0.26 69 1011.9
20260903213829 91 196 2.0 4.0 0.00 0.26 0.26 68 1011.9
20260903213333 92 196 2.0 5.0 0.00 0.26 0.26 70 1012.0
20260903212842 92 196 2.0 5.0 0.00 0.26 0.26 68 1012.0
20260903212324 92 196 2.0 3.0 0.00 0.26 0.26 68 1011.9
20260903211832 92 196 2.0 4.0 0.00 0.26 0.26 66 1012.1
20260903211337 92 196 1.0 4.0 0.00 0.26 0.26 69 1012.0
20260903210901 92 196 0.0 3.0 0.00 0.26 0.26 70 1012.0
20260903210324 91 196 1.0 5.0 0.00 0.26 0.26 67 1012.0
20260903205829 92 196 3.0 5.0 0.00 0.26 0.26 67 1012.0
20260903205333 92 186 2.0 5.0 0.00 0.26 0.26 68 1012.0
20260903204837 91 196 0.0 5.0 0.00 0.26 0.26 69 1012.1
20260903204325 91 182 0.0 5.0 0.00 0.26 0.26 68 1012.2
20260903203830 90 192 1.0 3.0 0.00 0.26 0.26 69 1012.2
20260903203338 90 192 1.0 6.0 0.00 0.26 0.26 70 1012.4
20260903202843 90 192 3.0 7.0 0.00 0.26 0.26 69 1012.4
20260903202326 90 190 3.0 7.0 0.00 0.26 0.26 70 1012.5
20260903201831 90 201 3.0 5.0 0.00 0.26 0.26 70 1012.7
20260903201335 89 202 1.0 5.0 0.00 0.26 0.26 71 1012.8
20260903200843 89 237 0.0 8.0 0.00 0.26 0.26 71 1012.8
20260903200328 89 196 2.0 8.0 0.00 0.26 0.26 71 1012.8
20260903195832 89 252 2.0 7.0 0.00 0.26 0.26 71 1012.8
20260903195336 89 234 2.0 7.0 0.00 0.26 0.26 72 1013.0
20260903194840 89 219 1.0 4.0 0.00 0.26 0.26 74 1013.0
20260903194329 88 242 1.0 5.0 0.00 0.26 0.26 74 1013.1
20260903193833 88 221 1.0 6.0 0.00 0.26 0.26 74 1013.1
20260903193338 88 192 3.0 6.0 0.00 0.26 0.26 73 1013.3
20260903192824 88 205 3.0 6.0 0.00 0.26 0.26 75 1013.4
20260903192331 87 180 0.0 5.0 0.00 0.26 0.26 74 1013.5
20260903191839 87 272 1.0 4.0 0.00 0.26 0.26 74 1013.5
20260903191343 87 250 1.0 4.0 0.00 0.26 0.26 74 1013.6
20260903190848 86 263 2.0 6.0 0.00 0.26 0.26 77 1013.8
20260903190331 86 244 1.0 6.0 0.00 0.26 0.26 75 1013.8
20260903185856 86 263 1.0 5.0 0.00 0.26 0.26 77 1013.9
20260903185339 85 272 2.0 5.0 0.00 0.26 0.26 76 1014.0
20260903184843 85 246 2.0 7.0 0.00 0.26 0.26 76 1014.0
20260903184331 85 239 3.0 7.0 0.00 0.27 0.26 81 1014.1
20260903183837 84 200 3.0 5.0 0.00 0.27 0.26 82 1014.1
20260903183404 83 237 2.0 6.0 0.00 0.27 0.26 82 1014.1
20260903182828 83 191 4.0 10.0 0.00 0.27 0.26 81 1014.2
20260903182331 82 195 4.0 10.0 0.00 0.27 0.26 83 1014.2
20260903181838 82 192 4.0 7.0 0.00 0.27 0.26 82 1014.4
20260903181325 82 211 4.0 6.0 0.00 0.27 0.26 85 1014.5
20260903180832 81 252 3.0 5.0 0.00 0.27 0.26 85 1014.5
20260903180337 81 212 1.0 5.0 0.00 0.27 0.26 84 1014.7
20260903175842 81 202 3.0 5.0 0.00 0.27 0.26 85 1014.7
20260903175344 80 212 1.0 6.0 0.00 0.27 0.26 87 1014.7
20260903174831 79 194 2.0 6.0 0.00 0.27 0.26 87 1014.8
20260903174339 79 200 2.0 5.0 0.00 0.27 0.26 87 1014.9
20260903173827 79 222 1.0 4.0 0.00 0.27 0.26 87 1015.2
20260903173332 79 217 2.0 6.0 0.00 0.27 0.26 87 1015.3
20260903172855 79 211 2.0 6.0 0.00 0.27 0.26 87 1015.3
20260903172401 79 193 2.0 6.0 0.00 0.27 0.26 87 1015.2
20260903171824 79 224 3.0 7.0 0.00 0.27 0.26 89 1015.2
20260903171329 78 234 2.0 7.0 0.00 0.27 0.26 89 1015.2
20260903170832 78 174 1.0 9.0 0.00 0.27 0.26 90 1015.2
20260903170340 77 157 4.0 10.0 0.00 0.27 0.26 90 1015.1
20260903165845 77 229 2.0 10.0 0.00 0.27 0.26 91 1015.4
20260903165328 77 167 2.0 7.0 0.00 0.27 0.26 91 1015.5
20260903164833 76 178 4.0 5.0 0.00 0.27 0.26 92 1015.7
20260903164341 76 190 2.0 5.0 0.00 0.42 0.26 92 1015.6
20260903163826 76 188 1.0 3.0 0.00 0.42 0.26 92 1015.6
20260903163350 75 188 1.0 3.0 0.00 0.42 0.26 92 1015.7
20260903162834 75 188 1.0 5.0 0.00 0.42 0.26 91 1015.7
20260903162358 75 188 3.0 8.0 0.00 0.42 0.26 91 1016.0
20260903161901 75 199 4.0 8.0 0.00 0.42 0.26 91 1016.1
20260903161325 75 199 3.0 5.0 0.00 0.42 0.26 92 1016.2
20260903160829 75 236 1.0 4.0 0.00 0.42 0.26 91 1016.3
20260903160334 75 250 1.0 4.0 0.00 0.42 0.26 91 1016.5
20260903155838 75 215 0.0 3.0 0.01 0.42 0.26 92 1016.4
20260903155342 75 258 0.0 4.0 0.02 0.42 0.26 92 1016.5
20260903154847 75 259 2.0 4.0 0.02 0.42 0.26 92 1016.6
20260903154333 75 259 2.0 3.0 0.03 0.42 0.26 93 1016.8
20260903153858 74 258 1.0 2.0 0.03 0.42 0.26 93 1016.9
20260903153325 74 258 1.0 4.0 0.03 0.42 0.26 93 1017.0
20260903152830 74 258 2.0 4.0 0.04 0.42 0.26 93 1016.9
20260903152333 74 258 1.0 3.0 0.12 0.42 0.26 93 1017.0
20260903151901 74 192 0.0 2.0 0.20 0.42 0.26 93 1017.1
20260903151324 74 192 0.0 3.0 0.21 0.42 0.26 93 1017.2
20260903150829 74 192 1.0 3.0 0.21 0.42 0.26 92 1017.0
20260903150334 74 192 1.0 4.0 0.21 0.42 0.26 92 1016.9
20260903145857 74 190 0.0 5.0 0.20 0.41 0.25 92 1016.9
20260903145340 74 190 3.0 5.0 0.19 0.40 0.24 92 1017.2
20260903144824 74 202 3.0 5.0 0.19 0.40 0.24 91 1016.9
20260903144329 74 65 0.0 2.0 0.18 0.39 0.23 91 1016.5
20260903143834 74 65 0.0 10.0 0.18 0.39 0.23 90 1016.9
20260903143338 74 66 2.0 11.0 0.18 0.39 0.23 90 1017.2
20260903142826 75 360 4.0 14.0 0.17 0.38 0.22 88 1017.8
20260903142329 75 324 4.0 21.0 0.10 0.31 0.15 89 1018.2
20260903141854 76 342 13.0 21.0 0.01 0.22 0.06 90 1018.7
20260903141337 76 323 4.0 13.0 0.00 0.21 0.05 92 1016.9
20260903140842 76 194 3.0 7.0 0.00 0.21 0.05 91 1016.7
20260903140326 76 222 3.0 6.0 0.00 0.21 0.05 91 1016.6
20260903135834 77 190 3.0 7.0 0.00 0.21 0.05 92 1016.8
20260903135336 77 229 2.0 7.0 0.00 0.21 0.05 92 1016.8
20260903134824 77 188 2.0 4.0 0.00 0.21 0.05 92 1016.2
20260903134329 77 191 3.0 5.0 0.01 0.21 0.05 93 1016.0
20260903133833 77 209 2.0 7.0 0.01 0.21 0.05 93 1015.9
20260903133341 77 242 2.0 7.0 0.01 0.21 0.05 94 1015.9
20260903132827 76 187 3.0 6.0 0.01 0.21 0.05 95 1016.1
20260903132334 75 200 1.0 4.0 0.01 0.21 0.05 94 1016.1
20260903131839 75 200 1.0 4.0 0.01 0.21 0.05 94 1016.1
20260903131343 75 200 1.0 3.0 0.01 0.21 0.05 94 1016.1
20260903130828 75 200 0.0 3.0 0.01 0.21 0.05 94 1016.3
20260903130352 75 200 1.0 4.0 0.01 0.21 0.05 94 1016.2
20260903125836 74 200 1.0 6.0 0.01 0.21 0.05 94 1016.2
20260903125340 74 189 3.0 6.0 0.02 0.21 0.05 94 1016.1
20260903124904 74 200 1.0 5.0 0.02 0.21 0.05 94 1016.4
20260903124327 74 194 0.0 6.0 0.02 0.20 0.04 94 1016.4
20260903123835 74 207 4.0 6.0 0.02 0.20 0.04 94 1016.2
20260903123344 74 189 3.0 5.0 0.03 0.20 0.04 94 1016.3
20260903122848 74 196 2.0 4.0 0.03 0.20 0.04 93 1016.5
20260903122331 74 196 1.0 5.0 0.03 0.20 0.04 93 1016.5
20260903121835 74 188 3.0 5.0 0.03 0.20 0.04 93 1016.8
20260903121340 74 229 1.0 3.0 0.03 0.20 0.04 93 1017.0
20260903120823 74 271 0.0 1.0 0.03 0.20 0.04 93 1017.2
20260903120331 74 271 0.0 5.0 0.03 0.20 0.04 93 1017.1
20260903115836 74 271 2.0 6.0 0.03 0.20 0.04 93 1016.8
20260903115359 74 336 5.0 6.0 0.03 0.19 0.03 93 1017.0
20260903114822 74 198 2.0 6.0 0.03 0.19 0.03 93 1016.2